Lancaster, PA

8:22 PM EDT on September 21, 2019 (GMT -0400)
Lancaster

Weather History for KLNS - August, 2019

Change the Weather History Date:

Wednesday, August 21, 2019

  Actual Average Record
Temperature  
Mean Temperature 80 °F -  
Max Temperature 90 °F 80 °F 100 °F (1983)
Min Temperature 71 °F 58 °F 47 °F (1981)
Cooling Degree Days 14    
Growing Degree Days 30 (Base 50)    
Moisture  
Dew Point 70 °F    
Average Humidity 75    
Maximum Humidity 87    
Minimum Humidity 57    
Precipitation  
Precipitation 0.16 in - - ()
Sea Level Pressure  
Sea Level Pressure 29.92 in    
Wind  
Wind Speed 5 mph (SSW)    
Max Wind Speed 18 mph    
Max Gust Speed 25 mph    
Visibility 9 miles    
Events Rain , Thunderstorm    
Averages and records for this station are not official NWS values.
T = Trace of Precipitation, MM = Missing Value Source: NWS Daily Summary

Daily Weather History Graph

Daily Weather History Graph

Search for Another Location

Airport or City:

Astronomy

Aug. 21, 2019 Rise Set
Actual Time 6:22 AM EDT 7:53 PM EDT
Civil Twilight 5:53 AM EDT 8:22 PM EDT
Nautical Twilight 5:19 AM EDT 8:56 PM EDT
Astronomical Twilight 4:42 AM EDT 9:33 PM EDT
Moon 11:10 PM EDT (8/21) 11:56 AM EDT (8/21)
Length of Visible Light 14h 28m
Length of Day
13h 31m
Waning Gibbous, 69% of the Moon is Illuminated
Aug 21
Waning Gibbous
Aug 23
Last Quarter
Aug 30
New
Sep 5
First Quarter
Sep 14
Full

Hourly Weather History & Observations

Time (EDT) Temp. Heat Index Dew Point Humidity Pressure Visibility Wind Dir Wind Speed Gust Speed Precip Events Conditions
12:53 AM 77.0 °F - 70.0 °F 79% 30.03 in 10.0 mi SSW 6.9 mph - N/A   Clear
1:53 AM 77.0 °F - 69.1 °F 76% 30.03 in 10.0 mi Calm Calm - N/A   Clear
2:53 AM 75.9 °F - 66.9 °F 74% 30.00 in 10.0 mi SW 5.8 mph - N/A   Clear
3:53 AM 75.0 °F - 66.0 °F 73% 29.98 in 10.0 mi South 3.5 mph - N/A   Clear
4:53 AM 73.9 °F - 66.0 °F 76% 29.97 in 10.0 mi SSW 3.5 mph - N/A   Clear
5:53 AM 72.0 °F - 66.0 °F 81% 29.96 in 10.0 mi SE 3.5 mph - N/A   Clear
6:53 AM 71.1 °F - 66.9 °F 87% 29.96 in 9.0 mi Calm Calm - N/A   Clear
7:53 AM 73.9 °F - 66.9 °F 79% 29.96 in 10.0 mi South 4.6 mph - N/A   Clear
8:53 AM 77.0 °F - 68.0 °F 74% 29.97 in 10.0 mi SSW 6.9 mph - N/A   Mostly Cloudy
9:53 AM 79.0 °F - 69.1 °F 72% 29.96 in 10.0 mi Variable 3.5 mph - N/A   Partly Cloudy
10:53 AM 80.1 °F 82.9 °F 69.1 °F 69% 29.96 in 10.0 mi SE 4.6 mph - N/A   Scattered Clouds
11:53 AM 82.0 °F 85.9 °F 70.0 °F 67% 29.94 in 10.0 mi WSW 4.6 mph - N/A   Partly Cloudy
12:53 PM 87.1 °F 92.8 °F 71.1 °F 59% 29.91 in 10.0 mi WSW 6.9 mph - N/A   Scattered Clouds
1:53 PM 88.0 °F 93.8 °F 71.1 °F 57% 29.90 in 10.0 mi Variable 5.8 mph 17.3 mph N/A   Mostly Cloudy
2:53 PM 87.1 °F 92.8 °F 71.1 °F 59% 29.89 in 10.0 mi SW 5.8 mph - N/A   Mostly Cloudy
3:53 PM 88.0 °F 94.7 °F 72.0 °F 59% 29.87 in 10.0 mi WSW 8.1 mph - N/A   Mostly Cloudy
4:53 PM 84.0 °F 91.2 °F 73.9 °F 72% 29.87 in 10.0 mi West 6.9 mph - 0.00 in   Scattered Clouds
5:53 PM 87.1 °F 96.3 °F 75.0 °F 67% 29.85 in 10.0 mi SE 3.5 mph - N/A   Clear
6:53 PM 84.0 °F 91.2 °F 73.9 °F 72% 29.84 in 8.0 mi Calm Calm - N/A   Mostly Cloudy
7:07 PM 78.1 °F - 72.0 °F 81% 29.86 in 1.5 mi NW 18.4 mph 25.3 mph 0.13 in Rain Heavy Rain
7:17 PM 78.1 °F - 71.1 °F 79% 29.85 in 3.0 mi North 8.1 mph 21.9 mph 0.16 in Rain Light Rain
7:37 PM 77.0 °F - 70.0 °F 79% 29.86 in 10.0 mi NNW 12.7 mph - 0.16 in Thunderstorm Overcast
7:48 PM 75.2 °F - 69.8 °F 83% 29.86 in 10.0 mi NNW 6.9 mph - 0.16 in Thunderstorm Mostly Cloudy
7:53 PM 75.9 °F - 70.0 °F 82% 29.86 in 10.0 mi Calm Calm - 0.16 in Thunderstorm Mostly Cloudy
8:09 PM 75.9 °F - 70.0 °F 82% 29.87 in 10.0 mi ESE 4.6 mph - N/A   Mostly Cloudy
8:53 PM 75.9 °F - 71.1 °F 85% 29.88 in 10.0 mi SSE 4.6 mph - N/A   Mostly Cloudy
9:53 PM 75.9 °F - 71.1 °F 85% 29.89 in 10.0 mi Calm Calm - N/A   Mostly Cloudy
10:53 PM 73.9 °F - 70.0 °F 87% 29.89 in 10.0 mi North 3.5 mph - N/A   Clear
11:53 PM 75.0 °F - 70.0 °F 84% 29.89 in 10.0 mi Calm Calm - N/A   Clear